Wind_Speed
18 19 20 20 20 21 21 21 22 23 24 24 25 24 24 23 23 23 23 23 23 23 23 20 20 20 18 18 10 13 16 18 22 20 18 24 24 19 16 20 25 20 20 17 13 12 12
19 20 21 22 23 24 25 26 26 25 24 24 25 25 25 23 21 21 23 23 25 25 23 21 21 22 21 20 14 16 13 15 20 24 21 19 25 28 25 26 23 23 24 21 17 11 11
23 23 24 24 25 26 27 28 29 29 29 30 29 28 27 27 29 27 26 25 26 26 24 23 22 22 23 20 16 17 16 16 17 24 26 24 26 29 31 28 28 24 24 26 21 11 13
28 29 30 31 32 32 33 33 33 33 33 33 33 33 33 31 29 28 27 28 27 27 26 25 25 24 24 24 21 19 21 14 16 18 28 28 27 30 33 31 29 28 25 25 25 12 17
29 31 32 33 34 35 37 38 39 39 39 38 38 38 38 37 36 34 32 30 29 29 27 26 26 26 26 28 24 22 23 20 20 16 18 28 28 26 27 31 30 28 26 27 26 15 17
29 30 31 32 34 35 37 39 41 42 43 42 42 44 45 43 41 40 38 36 34 32 32 29 28 29 27 27 29 25 26 23 23 20 19 20 27 28 25 24 25 25 28 29 28 19 17
29 31 32 34 35 35 36 37 39 40 40 40 42 44 47 48 48 45 44 42 40 39 36 35 30 31 29 28 31 30 28 28 25 22 19 16 19 18 23 24 24 26 26 28 29 27 23
30 34 34 35 36 37 39 41 43 44 43 44 44 43 44 46 50 51 50 49 47 45 41 39 38 33 32 32 33 33 32 31 26 20 22 20 10 17 24 30 26 26 23 27 32 32 26
34 37 39 38 37 40 43 46 47 48 48 50 49 48 50 50 49 49 51 52 53 50 49 43 43 39 39 37 36 35 34 31 30 31 24 19 21 23 26 30 32 27 28 28 33 35 31
40 43 45 45 47 50 52 53 54 54 55 57 56 55 54 53 54 54 53 51 53 55 55 50 48 47 45 44 41 39 37 37 35 31 27 28 28 29 28 30 32 32 29 34 37 40 35
45 46 48 51 55 59 60 61 63 65 67 67 64 64 64 61 57 58 59 56 53 53 55 59 51 51 49 50 45 44 39 43 39 35 35 26 27 24 25 18 27 26 35 36 37 39 39
47 52 56 59 64 68 70 73 76 79 81 82 80 77 72 68 66 61 60 63 60 56 59 60 56 52 49 52 53 49 46 45 42 40 40 34 33 35 27 31 26 31 38 37 38 39 46
52 59 63 67 71 73 76 77 77 75 73 71 72 74 77 78 71 69 65 62 64 65 60 61 61 58 53 52 54 53 51 51 49 45 42 40 40 36 36 36 34 34 40 42 45 47 44
60 64 66 68 71 72 66 62 58 50 47 53 57 56 55 54 57 58 62 66 64 67 71 64 60 57 52 55 52 53 52 54 54 49 46 43 44 40 38 35 32 34 37 42 46 41 39
63 63 65 67 67 60 53 44 37 44 50 58 60 61 55 50 43 40 42 52 55 70 73 68 65 62 57 54 53 56 51 52 53 53 51 48 45 43 40 37 36 33 39 32 41 42 35
61 62 64 63 52 46 44 41 49 54 54 56 54 59 53 41 36 36 34 36 47 61 66 65 62 68 66 62 56 56 57 57 55 54 58 56 52 51 45 42 42 40 31 39 42 43 38
59 60 61 49 42 44 46 46 50 52 51 54 52 58 53 39 33 33 29 30 35 48 62 65 66 70 68 63 60 60 64 62 59 60 61 59 55 55 53 49 48 48 46 42 38 35 32
58 57 50 39 43 45 49 49 49 50 47 49 49 53 55 39 33 29 30 26 26 37 53 59 66 68 68 67 63 63 65 66 65 63 57 57 58 59 54 52 52 47 44 42 41 33 31
53 50 44 40 43 48 51 56 59 53 50 48 47 45 50 46 33 29 29 24 21 24 41 51 57 67 69 68 67 70 70 68 67 66 65 63 59 58 57 57 57 55 49 49 46 38 34
47 43 45 39 41 45 52 56 57 53 51 47 46 45 47 44 38 29 24 22 20 20 22 42 48 60 66 65 68 71 73 72 71 70 66 64 64 62 58 47 53 57 56 54 50 45 40
45 42 45 39 39 45 50 56 57 53 50 47 43 43 44 43 38 32 25 21 17 17 13 15 27 25 59 63 69 69 76 75 75 73 71 69 66 66 63 64 61 59 58 55 56 47 46
46 45 44 37 35 41 51 55 60 52 46 45 43 42 40 40 39 31 24 19 16 15 13 9 19 27 23 51 68 70 76 79 79 77 76 73 72 71 67 64 64 64 61 60 58 50 48
46 41 44 33 34 40 49 55 57 51 48 43 42 39 38 40 36 33 22 18 17 13 14 12 13 35 27 30 54 71 75 74 81 80 80 77 76 74 69 66 66 68 64 59 60 55 52
46 41 43 35 33 38 46 53 57 58 47 43 39 38 34 37 35 34 25 15 12 12 11 12 7 24 36 25 25 57 74 76 76 81 81 80 78 75 74 75 73 67 65 65 62 56 53
45 42 39 39 32 37 42 50 55 57 59 46 40 37 32 33 32 34 29 20 13 8 8 11 7 9 28 35 24 28 46 76 79 76 80 82 80 78 77 78 70 74 72 70 68 65 61
43 43 40 40 31 34 41 49 54 57 57 53 38 36 31 31 29 32 27 21 13 8 7 8 7 6 8 28 27 25 17 31 71 81 80 78 83 82 80 79 79 72 75 76 74 69 64
43 43 42 40 30 33 39 47 53 56 54 49 39 31 35 34 27 27 27 20 13 10 10 7 5 5 4 14 19 22 32 39 45 67 79 83 81 85 83 84 82 83 82 80 74 67 68
42 42 42 39 33 32 38 44 50 54 52 46 37 34 33 30 30 26 25 22 15 11 9 8 6 4 2 6 12 20 21 27 42 47 65 84 88 85 86 87 88 84 84 83 74 76 73
40 41 42 40 38 32 36 42 48 49 48 44 33 30 25 30 31 29 25 20 17 13 12 9 6 5 3 2 5 10 14 18 23 33 48 62 81 92 92 93 87 89 88 84 81 81 73
Wind_Direction
321 318 316 314 311 309 307 306 302 297 294 291 291 290 286 284 282 283 282 278 271 270 270 271 269 271 272 269 263 257 243 227 219 221 213 217 221 213 200 196 202 200 192 188 191 189 181
316 313 310 307 304 302 300 299 298 296 295 293 290 288 285 280 279 284 284 280 276 271 268 265 263 264 266 264 261 256 252 233 221 220 216 212 213 210 209 203 201 208 203 192 183 185 181
311 307 304 301 299 297 296 295 294 292 291 290 289 288 285 278 276 279 280 278 277 272 266 263 259 257 260 258 260 246 237 243 224 220 217 211 206 215 212 212 209 210 205 202 193 210 195
309 307 305 302 300 298 294 292 289 287 287 286 284 282 282 280 278 277 275 273 270 270 266 261 258 255 255 256 252 242 246 234 235 227 217 217 212 211 218 221 215 211 204 201 200 203 186
313 310 307 304 302 300 297 294 291 287 284 282 281 279 278 276 274 273 271 271 267 261 261 258 254 253 251 252 252 245 247 229 232 232 226 217 222 227 227 223 223 221 204 204 213 205 199
324 320 317 314 311 307 304 301 298 294 290 285 282 280 277 274 272 270 268 264 263 262 256 254 252 252 248 247 252 243 245 237 233 231 223 219 223 227 230 230 230 223 212 202 204 203 197
335 332 327 323 320 316 313 310 305 300 295 291 288 285 279 275 271 268 266 262 260 256 256 252 250 251 244 244 244 244 239 241 236 232 229 223 220 224 229 234 229 225 223 204 205 207 192
331 327 323 319 314 312 309 308 307 304 302 301 298 292 286 280 274 269 264 262 259 256 251 251 248 248 247 244 241 241 239 238 241 238 234 227 194 210 215 221 225 227 218 209 212 212 208
322 319 319 313 312 309 306 302 297 295 292 293 293 290 285 282 280 274 267 262 259 255 252 246 246 244 247 242 242 239 239 238 234 234 229 219 205 212 209 213 216 213 212 211 213 220 219
317 320 319 315 312 312 309 305 300 296 291 287 284 282 281 278 273 273 272 265 259 256 254 246 243 241 239 242 240 240 239 238 236 232 233 222 215 217 213 212 216 210 209 215 213 222 224
317 317 316 313 312 312 311 308 306 302 297 293 289 285 281 276 270 264 264 264 262 255 256 249 241 240 238 240 241 239 238 237 234 237 234 224 227 224 227 218 222 210 214 214 219 223 227
318 318 318 319 321 319 315 312 312 310 307 302 296 289 284 278 274 268 258 256 255 255 252 249 247 240 238 235 236 237 234 236 233 231 231 225 220 217 212 215 211 208 210 213 217 223 229
324 327 327 325 323 322 323 322 319 317 315 313 308 302 294 284 276 266 261 253 249 245 249 247 245 242 237 234 233 234 231 232 235 232 229 224 224 222 214 216 213 210 209 209 216 223 236
332 330 327 329 330 331 331 329 329 335 336 328 325 320 314 298 283 268 255 249 244 242 238 243 244 244 239 234 232 230 229 229 228 229 233 231 229 220 221 224 225 222 218 217 219 228 236
334 333 336 336 335 333 333 336 340 333 328 326 328 327 320 315 297 286 263 248 237 232 235 234 236 238 237 234 230 230 227 226 226 228 227 228 225 225 225 226 228 227 225 224 226 229 231
336 335 337 337 335 336 335 332 332 332 330 328 330 335 332 321 305 302 288 268 248 232 227 226 228 229 231 229 227 225 224 223 222 220 222 225 223 226 223 221 223 228 223 221 222 226 233
334 338 339 338 338 342 341 339 342 339 334 334 339 344 341 328 316 313 304 288 262 241 225 219 217 223 225 225 222 220 221 221 218 218 218 218 221 226 223 221 223 222 219 219 223 226 235
338 340 340 336 341 347 349 339 341 341 341 339 335 344 350 340 330 326 317 305 270 245 231 221 217 216 219 219 213 213 219 220 218 219 219 220 220 223 222 222 223 226 227 230 230 225 226
339 338 338 334 340 351 349 347 333 334 342 341 341 342 351 351 338 335 326 310 296 258 235 226 224 217 212 211 211 213 218 217 218 218 215 217 218 220 223 220 221 222 223 226 225 223 225
339 338 336 331 337 344 350 347 340 336 343 343 342 345 349 355 350 334 330 319 299 293 256 232 229 224 212 207 210 211 211 214 216 218 217 217 219 219 223 226 226 223 223 225 226 224 226
339 337 338 329 336 343 346 343 347 339 340 345 343 345 346 354 352 345 330 326 305 297 299 244 220 231 224 208 207 207 210 210 211 215 216 216 216 219 220 220 221 222 224 227 230 223 226
339 338 332 328 337 342 343 343 350 349 335 344 345 339 345 350 352 349 336 326 318 292 283 264 211 194 197 219 209 206 207 209 210 212 214 215 216 218 220 223 226 227 224 226 229 227 225
339 338 337 327 336 340 340 340 346 345 335 339 345 341 337 346 353 352 343 328 312 297 289 270 239 201 186 198 217 211 207 209 211 211 214 215 216 217 219 222 224 227 227 229 229 227 225
342 337 339 330 338 338 341 338 346 349 345 340 345 343 337 345 351 354 350 325 313 301 290 269 252 215 210 187 202 218 212 208 210 212 214 216 217 217 217 221 222 223 226 226 231 231 232
339 340 337 335 338 338 342 339 342 345 348 344 343 339 338 343 350 355 354 350 319 298 278 274 276 249 220 211 215 218 218 214 209 210 213 214 217 218 217 220 220 223 225 226 229 228 230
338 341 339 334 339 342 342 339 343 345 346 346 342 336 341 339 344 354 358 3 349 324 301 297 297 283 258 220 223 232 210 212 217 214 212 215 216 219 220 219 220 223 226 227 229 231 232
338 339 340 336 336 339 339 341 345 347 348 346 345 345 3 356 352 359 5 3 3 344 334 332 317 300 225 205 214 231 233 229 220 218 218 216 217 218 220 222 222 222 225 227 229 233 231
334 337 337 338 332 337 336 346 347 349 351 349 3 15 7 9 5 3 10 9 6 2 353 5 2 349 260 214 211 221 216 234 234 227 222 220 219 220 221 223 224 224 227 228 230 229 231
332 334 335 335 337 335 341 345 350 351 352 8 14 12 17 18 21 22 25 27 28 33 36 39 51 81 92 146 188 195 220 229 231 233 233 227 225 223 224 223 226 226 227 230 230 233 233
Height
5888 5886 5884 5881 5879 5877 5875 5874 5872 5870 5868 5867 5865 5865 5864 5863 5862 5861 5861 5860 5859 5859 5859 5860 5859 5858 5859 5860 5862 5860 5861 5863 5865 5868 5871 5873 5875 5877 5880 5882 5885 5886 5888 5890 5892 5893 5893
5885 5882 5880 5877 5875 5872 5870 5868 5866 5865 5863 5862 5861 5859 5858 5858 5857 5857 5856 5854 5854 5854 5854 5855 5854 5854 5854 5855 5857 5856 5857 5858 5861 5863 5866 5868 5871 5873 5874 5878 5882 5884 5887 5889 5891 5892 5892
5881 5878 5876 5873 5870 5867 5865 5862 5860 5859 5857 5855 5854 5853 5852 5852 5851 5851 5850 5849 5847 5848 5849 5848 5849 5849 5850 5850 5851 5852 5853 5854 5856 5858 5861 5863 5865 5868 5871 5873 5876 5881 5884 5887 5890 5892 5892
5875 5873 5870 5867 5864 5861 5858 5855 5853 5852 5851 5849 5847 5845 5844 5844 5843 5843 5843 5843 5842 5841 5842 5843 5843 5844 5844 5845 5847 5847 5848 5850 5851 5853 5855 5858 5860 5863 5867 5869 5873 5876 5881 5885 5889 5891 5891
5870 5867 5864 5860 5857 5854 5851 5847 5845 5843 5842 5840 5838 5836 5835 5835 5835 5835 5835 5835 5835 5834 5835 5836 5837 5837 5838 5839 5841 5843 5843 5846 5846 5849 5851 5854 5857 5860 5862 5866 5869 5872 5878 5882 5885 5888 5889
5863 5860 5857 5853 5850 5846 5842 5839 5835 5833 5832 5830 5828 5826 5824 5824 5824 5824 5824 5825 5825 5826 5827 5828 5829 5830 5833 5834 5834 5837 5837 5840 5842 5844 5846 5849 5852 5855 5858 5861 5864 5868 5874 5878 5882 5885 5885
5858 5854 5850 5846 5842 5838 5834 5830 5825 5822 5820 5818 5816 5814 5812 5810 5811 5812 5812 5813 5816 5817 5817 5819 5822 5821 5824 5826 5827 5829 5831 5833 5836 5840 5843 5845 5847 5851 5855 5857 5862 5864 5868 5874 5878 5880 5883
5852 5848 5843 5839 5834 5830 5826 5821 5816 5812 5809 5806 5804 5802 5799 5797 5796 5796 5798 5799 5801 5803 5808 5808 5810 5814 5815 5817 5819 5821 5824 5828 5831 5836 5836 5840 5844 5845 5847 5850 5856 5859 5864 5870 5873 5876 5879
5846 5841 5836 5831 5826 5821 5816 5810 5804 5800 5796 5793 5790 5787 5785 5782 5781 5780 5781 5784 5785 5788 5791 5798 5798 5803 5804 5807 5810 5814 5817 5820 5823 5825 5831 5835 5837 5837 5840 5843 5847 5853 5859 5865 5869 5870 5874
5839 5833 5828 5822 5816 5810 5803 5797 5791 5785 5780 5776 5774 5770 5768 5766 5767 5764 5763 5767 5768 5772 5774 5782 5785 5789 5793 5795 5799 5804 5809 5811 5813 5819 5825 5827 5829 5831 5834 5838 5842 5847 5853 5856 5859 5861 5867
5830 5824 5817 5810 5803 5795 5787 5780 5772 5765 5759 5755 5753 5748 5745 5745 5746 5746 5747 5748 5750 5755 5756 5759 5770 5775 5780 5783 5790 5793 5800 5799 5806 5811 5814 5824 5825 5828 5831 5837 5837 5845 5845 5849 5854 5856 5860
5821 5815 5807 5798 5788 5777 5768 5759 5749 5740 5732 5725 5722 5721 5720 5720 5720 5723 5725 5727 5731 5737 5735 5740 5749 5758 5764 5770 5774 5779 5787 5791 5796 5800 5804 5812 5816 5817 5825 5825 5830 5833 5837 5842 5846 5850 5846
5812 5803 5793 5782 5771 5760 5749 5740 5731 5722 5713 5703 5695 5690 5686 5685 5690 5694 5698 5704 5708 5712 5718 5722 5728 5738 5747 5754 5759 5765 5772 5778 5782 5789 5795 5802 5807 5812 5814 5817 5821 5825 5829 5833 5836 5836 5837
5799 5789 5779 5768 5757 5746 5736 5727 5718 5710 5702 5692 5683 5674 5664 5657 5654 5659 5665 5673 5681 5686 5687 5703 5713 5721 5729 5737 5744 5749 5755 5762 5770 5778 5783 5791 5796 5804 5809 5812 5817 5819 5824 5826 5828 5834 5839
5787 5776 5765 5757 5747 5737 5730 5722 5713 5705 5696 5686 5674 5662 5651 5640 5635 5633 5637 5642 5647 5648 5666 5683 5692 5699 5707 5718 5726 5735 5742 5749 5756 5766 5773 5779 5787 5794 5801 5807 5810 5813 5813 5829 5827 5830 5834
5776 5769 5760 5750 5741 5733 5725 5717 5708 5698 5688 5678 5668 5653 5639 5628 5623 5620 5619 5619 5619 5628 5642 5654 5666 5674 5682 5693 5708 5717 5724 5731 5741 5749 5756 5765 5773 5779 5789 5797 5800 5803 5815 5814 5817 5821 5827
5771 5762 5752 5744 5737 5728 5720 5712 5703 5692 5680 5668 5658 5644 5628 5618 5614 5609 5607 5604 5603 5606 5614 5624 5634 5648 5661 5675 5686 5697 5702 5715 5724 5730 5740 5752 5762 5767 5775 5784 5790 5794 5798 5804 5812 5818 5823
5764 5755 5747 5738 5732 5724 5713 5706 5696 5685 5673 5660 5649 5638 5623 5611 5607 5601 5597 5592 5589 5588 5593 5603 5612 5626 5640 5653 5666 5676 5685 5695 5707 5718 5733 5741 5748 5754 5767 5774 5781 5788 5794 5801 5803 5812 5817
5758 5750 5741 5734 5727 5719 5709 5698 5686 5675 5664 5654 5643 5632 5620 5608 5601 5595 5589 5585 5582 5579 5580 5586 5593 5601 5616 5633 5648 5656 5667 5680 5691 5702 5712 5723 5736 5744 5751 5760 5766 5773 5784 5789 5796 5806 5810
5752 5744 5736 5728 5721 5714 5704 5693 5680 5666 5655 5645 5634 5623 5613 5604 5596 5590 5585 5579 5576 5573 5571 5573 5579 5585 5597 5614 5625 5637 5648 5662 5675 5686 5700 5711 5722 5731 5743 5755 5757 5763 5771 5778 5785 5795 5803
5746 5738 5730 5722 5715 5708 5698 5688 5676 5661 5649 5638 5628 5618 5606 5598 5589 5582 5578 5575 5572 5569 5566 5566 5570 5575 5581 5598 5607 5619 5628 5645 5658 5670 5682 5694 5707 5717 5727 5731 5741 5750 5761 5769 5774 5789 5793
5741 5732 5724 5716 5710 5703 5693 5682 5671 5657 5643 5632 5621 5612 5603 5593 5584 5576 5571 5569 5566 5564 5563 5562 5563 5567 5569 5578 5587 5597 5613 5626 5637 5653 5665 5678 5690 5702 5713 5724 5732 5738 5748 5757 5764 5777 5786
5736 5727 5719 5711 5705 5698 5688 5676 5665 5652 5637 5627 5616 5607 5598 5589 5581 5573 5567 5564 5561 5559 5558 5557 5557 5560 5564 5567 5575 5585 5599 5613 5626 5639 5649 5663 5674 5689 5702 5711 5718 5724 5739 5750 5755 5766 5775
5731 5723 5715 5707 5701 5693 5683 5671 5660 5648 5635 5621 5610 5602 5595 5586 5576 5570 5563 5559 5556 5554 5553 5552 5553 5553 5557 5562 5567 5574 5586 5599 5612 5624 5635 5648 5660 5674 5687 5692 5703 5722 5726 5733 5740 5756 5765
5726 5718 5710 5702 5696 5688 5679 5667 5655 5643 5629 5617 5607 5598 5591 5584 5576 5568 5560 5556 5553 5551 5551 5550 5550 5550 5551 5558 5563 5568 5578 5587 5601 5610 5622 5635 5646 5658 5671 5682 5698 5699 5709 5720 5727 5741 5750
5722 5714 5705 5697 5691 5684 5675 5664 5652 5640 5626 5613 5605 5596 5588 5583 5577 5569 5561 5555 5552 5550 5549 5549 5549 5548 5549 5554 5559 5564 5574 5579 5589 5599 5609 5620 5632 5643 5655 5667 5678 5691 5696 5706 5712 5725 5738
5718 5710 5700 5693 5687 5680 5671 5661 5649 5638 5624 5612 5604 5596 5589 5583 5576 5569 5562 5557 5553 5550 5549 5548 5548 5548 5548 5551 5556 5560 5565 5568 5581 5588 5598 5605 5615 5627 5640 5649 5664 5672 5679 5690 5704 5714 5723
5713 5706 5696 5689 5683 5676 5668 5659 5647 5636 5624 5612 5604 5598 5592 5584 5578 5571 5565 5559 5554 5551 5549 5548 5547 5547 5547 5549 5552 5554 5558 5563 5573 5580 5585 5594 5603 5615 5626 5634 5641 5656 5667 5680 5685 5693 5706
5708 5700 5692 5686 5679 5672 5666 5657 5647 5636 5624 5615 5608 5601 5595 5589 5583 5574 5568 5562 5557 5553 5550 5549 5548 5547 5547 5548 5549 5551 5555 5558 5564 5572 5578 5587 5593 5600 5608 5622 5632 5639 5649 5659 5675 5684 5697